[[{"header":{"parameterUnit":"m.s-1","parameterCategory":2,"la1":30.2992,"la2":30.254,"lo1":-89.0895,"lo2":-89.0443,"dy":0.0025,"dx":0.0025,"nx":19,"ny":19,"refTime":"2026-04-26T03:00:00:Z","depth":"0","parameterNumber":2,"parameterNumberName":"U-component_of_CURRENTS"},"data":[0,0,0,-0.1413,-0.1415,-0.1443,-0.1443,-0.1376,-0.1376,0,0,0,0,0,0,0,0,0,0,0,-0.1393,-0.1394,-0.1413,-0.1415,-0.1443,-0.1443,-0.1377,-0.1376,0,0,0,0,0,0,0,0,0,0,0,-0.1393,-0.1394,-0.1394,-0.1415,-0.1443,-0.1443,-0.1377,-0.1377,0,0,0,0,0,0,0,0,0,0,-0.1361,-0.1357,-0.1393,-0.1394,-0.1415,-0.1443,-0.1443,-0.1378,-0.1377,-0.1338,0,-0.1349,0,-0.1369,-0.137,-0.137,0,0,0,-0.14,-0.1358,-0.1376,-0.1394,-0.1416,-0.1443,-0.1426,-0.1378,-0.1377,-0.1336,-0.1348,-0.1347,-0.1368,-0.137,-0.1369,-0.1397,-0.1398,0,0,-0.1399,-0.1384,-0.1377,-0.1375,-0.1429,-0.1425,-0.1427,-0.1379,-0.1371,-0.1348,-0.1346,-0.1367,-0.1369,-0.1369,-0.1396,-0.1397,0,0,0,-0.1404,-0.1383,-0.1404,-0.1377,-0.1395,-0.1427,-0.1429,-0.1373,-0.1383,-0.1346,-0.1366,-0.1369,-0.1368,-0.1395,-0.1396,-0.1569,0,0,0,-0.1402,-0.1388,-0.1403,-0.1393,-0.1397,-0.1398,-0.1424,-0.1386,-0.1382,-0.1367,-0.1369,-0.1367,-0.1394,-0.1396,-0.1562,-0.161,0,0,0,-0.1391,-0.1386,-0.1394,-0.1392,-0.1414,-0.14,-0.1407,-0.1386,-0.1394,-0.137,-0.1367,-0.1393,-0.1395,-0.1556,-0.16,-0.1661,0,0,0,-0.1369,-0.1411,-0.1394,-0.1439,-0.1414,-0.147,-0.1407,-0.1421,-0.1407,-0.1368,-0.1394,-0.1396,-0.1554,-0.1594,-0.1655,-0.1487,-0.15,0,0,-0.142,-0.1416,-0.1446,-0.1433,-0.1503,-0.1464,-0.1554,-0.1499,-0.1427,-0.1397,-0.1399,-0.1564,-0.1599,-0.166,-0.1613,-0.1623,0,0,0,-0.1461,-0.1472,-0.149,-0.1521,-0.1553,-0.1618,-0.1575,-0.1569,-0.1567,-0.1434,-0.156,-0.1576,-0.1609,-0.1495,-0.1504,-0.1398,-0.1406,-0.1406,-0.1406,-0.1487,-0.1515,-0.157,-0.1613,-0.1661,-0.1714,-0.1769,-0.1753,-0.1658,-0.1692,-0.1716,-0.1873,-0.1755,-0.1759,-0.1656,-0.1727,-0.1728,-0.1728,-0.1728,-0.1538,-0.1561,-0.1625,-0.1679,-0.1768,-0.1833,-0.1938,-0.1926,-0.1975,-0.1869,-0.1894,-0.168,-0.1778,-0.1664,-0.174,-0.1738,-0.1736,-0.1735,-0.1734,-0.1513,-0.1538,-0.157,-0.1673,-0.1797,-0.1901,-0.2035,-0.2099,-0.2095,-0.2159,-0.196,-0.1954,-0.1849,-0.2149,-0.2149,-0.215,-0.215,-0.2151,-0.2151,-0.1466,-0.1517,-0.1549,-0.1663,-0.1736,-0.1878,-0.2065,-0.2127,-0.2148,-0.2108,-0.2106,-0.1877,-0.2,-0.1978,-0.2159,-0.2158,-0.2157,-0.2156,-0.2156,-0.1416,-0.1434,-0.148,-0.1536,-0.1702,-0.1766,-0.1977,-0.2037,-0.2126,-0.2095,-0.191,-0.2074,-0.1987,-0.1975,-0.1951,-0.2114,-0.2114,-0.2114,-0.2114,-0.1368,-0.1386,-0.1408,-0.147,-0.1588,-0.1711,-0.1708,-0.1786,-0.1818,-0.1775,-0.1842,-0.1708,-0.1714,-0.1604,-0.1601,-0.1566,-0.1629,-0.1628,-0.1628,-0.1333,-0.1343,-0.1318,-0.1369,-0.1498,-0.158,-0.1479,-0.1434,-0.1512,-0.1606,-0.1746,-0.1767,-0.1569,-0.1587,-0.1404,-0.1408,-0.1346,0,0]},{"header":{"parameterUnit":"m.s-1","parameterCategory":2,"la1":30.2992,"la2":30.254,"lo1":-89.0895,"lo2":-89.0443,"dy":0.0025,"dx":0.0025,"nx":19,"ny":19,"refTime":"2026-04-26T03:00:00:Z","depth":"0","parameterNumber":3,"parameterNumberName":"V-component_of_CURRENTS"},"data":[0,0,0,0.0111,0.0113,0.024,0.0241,0.0471,0.0473,0,0,0,0,0,0,0,0,0,0,0,0.006,0.006,0.0111,0.0113,0.024,0.0241,0.0471,0.0473,0,0,0,0,0,0,0,0,0,0,0,0.006,0.006,0.006,0.0113,0.024,0.0241,0.047,0.0364,0,0,0,0,0,0,0,0,0,0,0.0235,0.0168,0.006,0.006,0.0114,0.0239,0.0241,0.0358,0.0371,0.0424,0,0.0419,0,0.0445,0.0487,0.0488,0,0,0,0.014,0.0158,0.0188,0.006,0.0115,0.0239,0.019,0.0365,0.0379,0.0441,0.0423,0.0431,0.0449,0.0489,0.049,0.0684,0.0684,0,0,0.0133,0.0098,0.0178,0.0195,0.0118,0.0186,0.0194,0.0373,0.0379,0.0423,0.0437,0.0453,0.049,0.0492,0.0683,0.0684,0,0,0,0.0095,0.0093,0.0118,0.0186,0.02,0.0189,0.0198,0.0371,0.0377,0.0439,0.0455,0.0491,0.0494,0.0683,0.0684,0.0674,0,0,0,0.0092,0.0069,0.0114,0.0098,0.0195,0.0278,0.0192,0.0364,0.0385,0.0454,0.0492,0.0496,0.0682,0.0683,0.0673,0.0635,0,0,0,0.0059,0.0067,0.007,0.0095,0.0138,0.0275,0.0293,0.037,0.0395,0.0488,0.0497,0.0682,0.0683,0.0672,0.0635,0.067,0,0,0,0.0037,0.0014,0.0068,0.0077,0.0136,0.0246,0.0292,0.0385,0.0461,0.0493,0.0682,0.0684,0.0672,0.0635,0.0669,0.0651,0.0652,0,0,-0.0007,0.0008,0.0021,0.0073,0.0154,0.0232,0.035,0.0455,0.05,0.0632,0.0636,0.0674,0.0635,0.067,0.0721,0.0719,0,0,0,0.0001,0.0007,0.0045,0.0108,0.0205,0.0311,0.0429,0.0489,0.0598,0.0545,0.0701,0.0677,0.0699,0.0688,0.0688,0.0722,0.0689,0.0689,0.0689,-0.0085,-0.0011,0.0028,0.0134,0.0218,0.0387,0.0477,0.0583,0.0636,0.0674,0.0691,0.0734,0.0724,0.0723,0.0759,0.0734,0.0734,0.0734,0.0734,-0.0126,-0.01,0.0014,0.0064,0.0207,0.0314,0.0522,0.0583,0.0716,0.072,0.0744,0.0704,0.0722,0.0761,0.0734,0.0734,0.0734,0.0734,0.0734,-0.0184,-0.0166,-0.0128,-0.0037,0.0067,0.0239,0.036,0.0519,0.0664,0.0712,0.0722,0.0722,0.0738,0.0731,0.0731,0.0731,0.0731,0.0731,0.0731,-0.0269,-0.0224,-0.023,-0.0139,-0.0112,0.0003,0.0252,0.038,0.0582,0.0694,0.0695,0.076,0.0733,0.0711,0.0731,0.0731,0.0731,0.0731,0.0731,-0.0323,-0.0323,-0.0344,-0.0341,-0.0268,-0.0192,0.0037,0.0333,0.0491,0.0591,0.0748,0.0713,0.0713,0.0714,0.0693,0.0707,0.0707,0.0707,0.0707,-0.0373,-0.0367,-0.0417,-0.0446,-0.0418,-0.0275,-0.0086,0.0198,0.0547,0.0679,0.0759,0.0761,0.0761,0.0764,0.0764,0.0744,0.0771,0.0772,0.0772,-0.0389,-0.0412,-0.0463,-0.0492,-0.0487,-0.0344,-0.0161,0.0111,0.0554,0.0779,0.0813,0.081,0.0819,0.0815,0.0824,0.0821,0.079,0,0]}],[{"header":{"parameterUnit":"m.s-1","parameterCategory":2,"la1":30.2992,"la2":30.254,"lo1":-89.0895,"lo2":-89.0443,"dy":0.0025,"dx":0.0025,"nx":19,"ny":19,"refTime":"2026-04-26T03:00:00:Z","depth":"2","parameterNumber":2,"parameterNumberName":"U-component_of_CURRENTS"},"data":[0,0,0,-0.1347,-0.1348,-0.1372,-0.1372,-0.124,-0.1239,0,0,0,0,0,0,0,0,0,0,0,-0.1327,-0.1328,-0.1347,-0.1348,-0.1372,-0.1372,-0.124,-0.1239,0,0,0,0,0,0,0,0,0,0,0,-0.1327,-0.1328,-0.1328,-0.1348,-0.1372,-0.1372,-0.1241,-0.1258,0,0,0,0,0,0,0,0,0,0,-0.1253,-0.1264,-0.1328,-0.1328,-0.1348,-0.1372,-0.1372,-0.126,-0.1257,-0.1189,0,-0.1204,0,-0.1228,-0.1228,-0.1227,0,0,0,-0.1327,-0.1267,-0.1281,-0.1328,-0.1349,-0.1372,-0.1355,-0.1259,-0.1255,-0.1184,-0.1203,-0.12,-0.1226,-0.1227,-0.1226,-0.1178,-0.1179,0,0,-0.1326,-0.1317,-0.1284,-0.1279,-0.1366,-0.1355,-0.1356,-0.1258,-0.125,-0.1203,-0.1197,-0.1224,-0.1226,-0.1225,-0.1178,-0.1179,0,0,0,-0.1336,-0.1316,-0.1335,-0.1283,-0.1306,-0.1356,-0.1358,-0.1254,-0.1263,-0.1196,-0.1222,-0.1225,-0.1223,-0.1177,-0.1178,-0.1355,0,0,0,-0.1334,-0.1324,-0.1334,-0.1327,-0.1309,-0.1303,-0.1355,-0.127,-0.1261,-0.1223,-0.1225,-0.1221,-0.1176,-0.1178,-0.1349,-0.1411,0,0,0,-0.1324,-0.1322,-0.1331,-0.1327,-0.1349,-0.1306,-0.1309,-0.1269,-0.1276,-0.1227,-0.1221,-0.1176,-0.1177,-0.1343,-0.1401,-0.1446,0,0,0,-0.1305,-0.1351,-0.1331,-0.138,-0.135,-0.139,-0.1311,-0.1313,-0.1282,-0.1224,-0.1176,-0.1178,-0.1341,-0.1395,-0.144,-0.1285,-0.1298,0,0,-0.1361,-0.1357,-0.1388,-0.1372,-0.1432,-0.1384,-0.1446,-0.1366,-0.1279,-0.1191,-0.1191,-0.1351,-0.1401,-0.1445,-0.1377,-0.1387,0,0,0,-0.1405,-0.1418,-0.1433,-0.1458,-0.1476,-0.1516,-0.1449,-0.142,-0.1379,-0.1273,-0.1333,-0.1358,-0.1381,-0.1275,-0.1284,-0.1185,-0.1185,-0.1185,-0.1185,-0.1438,-0.146,-0.1509,-0.1538,-0.1571,-0.159,-0.1619,-0.1563,-0.1456,-0.1471,-0.1491,-0.1627,-0.1517,-0.1521,-0.1482,-0.1483,-0.1484,-0.1484,-0.1485,-0.1491,-0.151,-0.1558,-0.1606,-0.1662,-0.17,-0.1747,-0.1722,-0.1729,-0.1623,-0.1637,-0.1452,-0.1541,-0.1498,-0.1496,-0.1494,-0.1492,-0.1491,-0.1491,-0.1468,-0.1489,-0.1519,-0.1604,-0.1701,-0.1769,-0.1863,-0.1895,-0.1858,-0.1917,-0.172,-0.1713,-0.1721,-0.1901,-0.1902,-0.1902,-0.1903,-0.1903,-0.1904,-0.1421,-0.1468,-0.1499,-0.1599,-0.1663,-0.1776,-0.1913,-0.1944,-0.1933,-0.1879,-0.1876,-0.1766,-0.1752,-0.1742,-0.1912,-0.191,-0.1909,-0.1908,-0.1908,-0.1381,-0.1394,-0.1442,-0.1494,-0.1639,-0.1687,-0.1853,-0.1877,-0.1931,-0.1893,-0.1839,-0.1837,-0.175,-0.1738,-0.1724,-0.188,-0.188,-0.188,-0.188,-0.1338,-0.1354,-0.1378,-0.1437,-0.154,-0.1639,-0.1582,-0.1506,-0.1566,-0.1525,-0.154,-0.1407,-0.1416,-0.1301,-0.1299,-0.1272,-0.131,-0.1309,-0.1308,-0.1312,-0.132,-0.1301,-0.1345,-0.1465,-0.152,-0.1338,-0.1089,-0.1108,-0.1281,-0.1402,-0.1849,-0.1689,-0.169,-0.1534,-0.1523,-0.1487,0,0]},{"header":{"parameterUnit":"m.s-1","parameterCategory":2,"la1":30.2992,"la2":30.254,"lo1":-89.0895,"lo2":-89.0443,"dy":0.0025,"dx":0.0025,"nx":19,"ny":19,"refTime":"2026-04-26T03:00:00:Z","depth":"2","parameterNumber":3,"parameterNumberName":"V-component_of_CURRENTS"},"data":[0,0,0,-0.0053,-0.0051,0.0102,0.0103,0.0207,0.0208,0,0,0,0,0,0,0,0,0,0,0,-0.0114,-0.0113,-0.0054,-0.005,0.0102,0.0103,0.0207,0.0208,0,0,0,0,0,0,0,0,0,0,0,-0.0114,-0.0113,-0.0113,-0.005,0.0102,0.0103,0.0207,0.0118,0,0,0,0,0,0,0,0,0,0,-0.0017,-0.0067,-0.0113,-0.0113,-0.0049,0.0102,0.0103,0.0115,0.0124,0.0107,0,0.0119,0,0.016,0.0211,0.0212,0,0,0,-0.0034,-0.0074,-0.0034,-0.0113,-0.0048,0.0102,0.0038,0.0121,0.0131,0.0118,0.0121,0.0126,0.0161,0.0212,0.0212,0.0295,0.0295,0,0,-0.0043,-0.0082,-0.004,-0.0028,-0.0026,0.0033,0.0042,0.0128,0.0128,0.0121,0.0129,0.0163,0.0212,0.0212,0.0294,0.0295,0,0,0,-0.0078,-0.0089,-0.0047,-0.0034,-0.0002,0.0037,0.0048,0.0125,0.0138,0.0131,0.0164,0.0212,0.0213,0.0294,0.0295,0.031,0,0,0,-0.0082,-0.011,-0.0052,-0.0073,-0.0003,0.0076,0.0042,0.0132,0.0144,0.0164,0.0212,0.0213,0.0293,0.0294,0.0309,0.0273,0,0,0,-0.0118,-0.0113,-0.01,-0.0076,-0.0015,0.0076,0.0096,0.0137,0.0163,0.0212,0.0214,0.0293,0.0294,0.0307,0.0272,0.0254,0,0,0,-0.0155,-0.0156,-0.0102,-0.0077,-0.0017,0.0092,0.0096,0.0179,0.0225,0.0213,0.0293,0.0295,0.0307,0.0271,0.0254,0.008,0.0066,0,0,-0.0179,-0.016,-0.0139,-0.0087,-0.0004,0.0073,0.0166,0.022,0.0235,0.026,0.0263,0.0309,0.0272,0.0254,0.0153,0.0136,0,0,0,-0.016,-0.015,-0.0112,-0.0048,0.0047,0.0131,0.0216,0.0243,0.0294,0.0265,0.0331,0.0306,0.0294,0.019,0.0178,0.0301,0.03,0.03,0.03,-0.0264,-0.0182,-0.0139,-0.0032,0.0043,0.0183,0.0245,0.0295,0.0321,0.0345,0.0337,0.0352,0.0245,0.0233,0.038,0.038,0.038,0.038,0.038,-0.03,-0.0271,-0.0163,-0.0097,0.0017,0.01,0.0239,0.0286,0.0345,0.036,0.0349,0.0233,0.022,0.0382,0.0381,0.0381,0.0381,0.0381,0.0381,-0.0374,-0.0347,-0.0294,-0.0197,-0.0113,0.0028,0.0089,0.0221,0.0308,0.0341,0.0212,0.021,0.032,0.0341,0.0341,0.0341,0.034,0.034,0.034,-0.0477,-0.0413,-0.0399,-0.0298,-0.0272,-0.0183,-0.0006,0.0042,0.0117,0.0182,0.0181,0.0338,0.0339,0.0317,0.0337,0.0338,0.0338,0.0338,0.0338,-0.0564,-0.0532,-0.053,-0.0514,-0.0432,-0.0423,-0.0266,-0.0208,-0.0123,-0.0139,0.009,0.0097,0.0059,0.0067,0.0038,-0.0015,-0.0015,-0.0015,-0.0015,-0.0647,-0.0618,-0.0632,-0.0633,-0.0603,-0.0527,-0.0535,-0.0394,-0.0247,-0.0149,-0.0142,-0.015,-0.0135,-0.0182,-0.0168,-0.0201,-0.0316,-0.0316,-0.0316,-0.0716,-0.0708,-0.0749,-0.0704,-0.0679,-0.0653,-0.0655,-0.0417,-0.0238,-0.0317,-0.0082,-0.0057,-0.0052,-0.0034,-0.0092,-0.0075,-0.0122,0,0]}],[{"header":{"parameterUnit":"m.s-1","parameterCategory":2,"la1":30.2992,"la2":30.254,"lo1":-89.0895,"lo2":-89.0443,"dy":0.0025,"dx":0.0025,"nx":19,"ny":19,"refTime":"2026-04-26T03:00:00:Z","depth":"4","parameterNumber":2,"parameterNumberName":"U-component_of_CURRENTS"},"data":[0,0,0,-0.0691,-0.0694,-0.0848,-0.0849,-0.1007,-0.1008,0,0,0,0,0,0,0,0,0,0,0,-0.0669,-0.067,-0.0691,-0.0694,-0.0848,-0.0849,-0.1007,-0.1008,0,0,0,0,0,0,0,0,0,0,0,-0.0669,-0.067,-0.0671,-0.0694,-0.0848,-0.085,-0.1007,-0.0909,0,0,0,0,0,0,0,0,0,0,-0.0767,-0.0754,-0.067,-0.0671,-0.0695,-0.0848,-0.085,-0.0905,-0.0915,-0.0914,0,-0.0943,0,-0.0948,-0.1014,-0.1014,0,0,0,-0.073,-0.0746,-0.076,-0.0671,-0.0696,-0.0847,-0.0789,-0.0911,-0.0922,-0.0927,-0.0945,-0.095,-0.0951,-0.1015,-0.1015,-0.1159,-0.116,0,0,-0.0721,-0.0723,-0.0753,-0.0768,-0.074,-0.0783,-0.0793,-0.0918,-0.0946,-0.0945,-0.0953,-0.0953,-0.1015,-0.1016,-0.1158,-0.1159,0,0,0,-0.0672,-0.0717,-0.0732,-0.0762,-0.0776,-0.0787,-0.0798,-0.0942,-0.094,-0.0955,-0.0955,-0.1016,-0.1017,-0.1157,-0.1158,-0.1228,0,0,0,-0.0669,-0.0685,-0.0728,-0.0734,-0.0774,-0.0868,-0.0819,-0.0933,-0.0946,-0.0954,-0.1016,-0.1018,-0.1156,-0.1158,-0.1224,-0.1212,0,0,0,-0.0661,-0.0684,-0.0698,-0.0733,-0.0777,-0.0866,-0.0874,-0.0937,-0.0943,-0.1015,-0.1018,-0.1155,-0.1157,-0.1221,-0.1207,-0.1261,0,0,0,-0.0663,-0.0687,-0.0699,-0.0731,-0.0775,-0.0824,-0.0874,-0.0974,-0.1043,-0.1016,-0.1156,-0.1158,-0.122,-0.1205,-0.1258,-0.0909,0,0,0,-0.068,-0.069,-0.0702,-0.0714,-0.0742,-0.0805,-0.0866,-0.1004,-0.107,-0.1116,-0.112,-0.1226,-0.1207,-0.126,-0.1035,0,0,0,0,-0.0698,-0.0706,-0.0717,-0.0746,-0.078,-0.0853,-0.0952,-0.1017,-0.1183,-0.111,-0.1248,-0.1233,-0.1265,-0.1054,-0.1168,-0.1168,-0.1168,-0.1168,-0.1167,-0.0704,-0.0714,-0.0728,-0.0754,-0.08,-0.0905,-0.099,-0.1103,-0.1169,-0.1288,-0.131,-0.1415,-0.1199,-0.1353,-0.1353,-0.1353,-0.1354,-0.1354,-0.1354,-0.0688,-0.0684,-0.0722,-0.0741,-0.0812,-0.0883,-0.1043,-0.1156,-0.1334,-0.1374,-0.1404,-0.1165,-0.1362,-0.136,-0.1359,-0.1358,-0.1358,-0.1357,-0.1357,-0.0657,-0.0657,-0.068,-0.0723,-0.0805,-0.0916,-0.0976,-0.1203,-0.138,-0.1459,-0.1284,-0.1458,-0.143,-0.1535,-0.1535,-0.1535,-0.1535,-0.1535,-0.1536,-0.0616,-0.0635,-0.064,-0.0709,-0.0751,-0.0841,-0.1022,-0.1047,-0.1278,-0.1298,-0.1519,-0.1476,-0.147,-0.1441,-0.1539,-0.1538,-0.1538,-0.1538,-0.1537,-0.0571,-0.0586,-0.0594,-0.0618,-0.0674,-0.0725,-0.0867,-0.0857,-0.0938,-0.0953,-0.1197,-0.1213,-0.1147,-0.1149,-0.1106,-0.1109,-0.1104,-0.11,0,-0.0532,-0.0539,-0.0532,-0.0532,-0.0534,-0.0634,-0.055,-0.0569,-0.0794,-0.0868,-0.1001,-0.1285,-0.1293,-0.1221,-0.1216,-0.1164,0,0,0,-0.0493,-0.0503,-0.0476,-0.0469,-0.0469,-0.0465,-0.0522,-0.0499,-0.0833,-0.0594,-0.0996,-0.1024,-0.1021,-0.1549,-0.1486,-0.1478,-0.1428,0,0]},{"header":{"parameterUnit":"m.s-1","parameterCategory":2,"la1":30.2992,"la2":30.254,"lo1":-89.0895,"lo2":-89.0443,"dy":0.0025,"dx":0.0025,"nx":19,"ny":19,"refTime":"2026-04-26T03:00:00:Z","depth":"4","parameterNumber":3,"parameterNumberName":"V-component_of_CURRENTS"},"data":[0,0,0,-0.0117,-0.0117,-0.0145,-0.0145,-0.0202,-0.0202,0,0,0,0,0,0,0,0,0,0,0,-0.0112,-0.0112,-0.0117,-0.0117,-0.0145,-0.0145,-0.0202,-0.0202,0,0,0,0,0,0,0,0,0,0,0,-0.0112,-0.0112,-0.0112,-0.0117,-0.0145,-0.0145,-0.0202,-0.0178,0,0,0,0,0,0,0,0,0,0,-0.015,-0.0148,-0.0112,-0.0112,-0.0118,-0.0145,-0.0145,-0.0177,-0.0179,-0.0193,0,-0.0193,0,-0.0193,-0.0206,-0.0206,0,0,0,-0.0127,-0.0146,-0.0141,-0.0112,-0.0118,-0.0145,-0.0135,-0.0178,-0.0181,-0.0196,-0.0194,-0.0196,-0.0194,-0.0206,-0.0206,-0.0286,-0.0286,0,0,-0.0126,-0.0132,-0.0138,-0.0142,-0.0121,-0.0134,-0.0136,-0.018,-0.019,-0.0194,-0.0197,-0.0195,-0.0206,-0.0207,-0.0285,-0.0286,0,0,0,-0.0115,-0.0131,-0.0124,-0.014,-0.014,-0.0135,-0.0137,-0.0188,-0.0182,-0.0198,-0.0196,-0.0207,-0.0207,-0.0285,-0.0286,-0.0364,0,0,0,-0.0114,-0.0123,-0.0123,-0.0129,-0.0139,-0.0164,-0.0144,-0.0179,-0.0184,-0.0196,-0.0207,-0.0208,-0.0284,-0.0285,-0.036,-0.0405,0,0,0,-0.0112,-0.0123,-0.0122,-0.0129,-0.0134,-0.0163,-0.016,-0.018,-0.0182,-0.0206,-0.0208,-0.0284,-0.0285,-0.0358,-0.04,-0.0386,0,0,0,-0.0123,-0.0149,-0.0122,-0.0162,-0.0134,-0.0192,-0.016,-0.0205,-0.0231,-0.0207,-0.0284,-0.0286,-0.0357,-0.0396,-0.0383,-0.0327,0,0,0,-0.0165,-0.0154,-0.018,-0.0157,-0.0225,-0.0189,-0.0272,-0.028,-0.025,-0.0272,-0.0274,-0.0362,-0.0399,-0.0385,-0.0396,0,0,0,0,-0.0201,-0.0217,-0.0234,-0.0265,-0.0289,-0.0331,-0.0332,-0.0322,-0.0337,-0.0267,-0.0363,-0.0385,-0.0373,-0.0333,-0.0291,-0.0291,-0.0291,-0.0291,-0.0291,-0.0265,-0.028,-0.0337,-0.0365,-0.0406,-0.0435,-0.0459,-0.0446,-0.041,-0.0418,-0.045,-0.0498,-0.0461,-0.0444,-0.0444,-0.0445,-0.0445,-0.0445,-0.0446,-0.0332,-0.0369,-0.0404,-0.0464,-0.051,-0.0575,-0.0593,-0.0568,-0.0563,-0.0524,-0.0507,-0.0422,-0.0453,-0.0452,-0.0451,-0.045,-0.0449,-0.0449,-0.0448,-0.0367,-0.0391,-0.0422,-0.0514,-0.0605,-0.0657,-0.0694,-0.0697,-0.064,-0.0644,-0.0541,-0.0537,-0.0526,-0.061,-0.0611,-0.0611,-0.0611,-0.0611,-0.0611,-0.0391,-0.0424,-0.0481,-0.057,-0.0636,-0.071,-0.0755,-0.0736,-0.0702,-0.063,-0.065,-0.0552,-0.0547,-0.0534,-0.0614,-0.0613,-0.0613,-0.0613,-0.0612,-0.0443,-0.044,-0.0526,-0.0584,-0.0698,-0.0731,-0.0775,-0.0725,-0.0684,-0.0629,-0.0597,-0.0597,-0.0553,-0.0547,-0.0532,-0.0614,-0.0614,-0.0613,0,-0.0462,-0.0472,-0.0564,-0.0642,-0.07,-0.0744,-0.0687,-0.0665,-0.0628,-0.0615,-0.0664,-0.0631,-0.0629,-0.058,-0.0574,-0.0557,0,0,0,-0.0491,-0.0518,-0.058,-0.0647,-0.0708,-0.0672,-0.0667,-0.064,-0.0639,-0.0601,-0.0602,-0.0605,-0.062,-0.0621,-0.0552,-0.0545,-0.052,0,0]}]]